Погода в Тайпаке

Погода в Тайпаке : погода сейчас, прогноз погоды и архив. Всё, что Вы хотите узнать о погоде в Тайпаке!

Хотите узнать прогноз погоды в Тайпаке? Тогда Вам сюда: Погода в Тайпаке

Поиск расширенной информации на нашем сайте:

Другие новости

Новости СМИ2

Главная страница сайта

Новости сайта

02.10.2013

Напоминаем, что на нашем новом сайте вы можете получить высокодетализированные прогнозы погоды по пунктам России, СНГ и мира (включающие важные для авиации метеовеличины, такие как направление и скорость ветра, видимость, явления погоды, количество и форма облачности, нижняя и верхняя граница облачности), а также ознакомиться с разнообразными материалами по авиационной метеорологии и подборкой полезных ссылок на эту тему.

Сайт Метеоцентр.Азия посвящён разработке технологий оптимизации авиаметеорологического обслуживания, включая проектирование и перспективное создание нескольких автоматизированных авиаметеорологических систем:
- система выпуска высокодетальных прогностических карт явлений погоды для нижнего воздушного пространства по России и ближнему зарубежью;
- система верификации прогнозов TAF (выпускаемых синоптиками официальных АМСГ РФ и ближнего зарубежья) и AUTOTAF (выпускаемых сайтом Метеоцентр.Азия) - выявление ошибок, онлайн-сопоставление с фактической погодой METAR, автоматическое внесение коррективов в прогнозы при резком отклонении фактической погоды от прогноза, подсчёт оправдываемости прогнозов по элементам и в целом;
- система обработки, анализа и отображения авиаметеорологической информации для применения провайдерами метеорологической информации.


Погода в Тайпаке - сегодня

Время (UTC), дата Ветер
(°,м/с) 
Видим.   Явления Облачность Т
(°С)
Тd
(°С)
f(%) Тe
(°С)
Pmin
(гПа)
dP
(гПа)
Po
(мм)
O2
(г/м3)
Тmin Tmax R s Состояние
почвы
03 25.06.17 310 (СЗ) 10 км    10/10 600 м кучево-дожд. 
[Cb calv]
+15.2 +11.5 79 +18  1007.2  2.3  755  286           
06 25.06.17 320 (СЗ) 10 км    6/0 верхняя 
[Ci fib]
+17.2 +9.5 61 +17  1008.9  1.7  757  285  +14.7    0.0     
09 25.06.17 320 (СЗ) 10 км    6/0 средняя 
[Ac trans]
+22.5 +6.5 36 +23  1009.7  0.8  757  281           
12 25.06.17 340 (С) 10 км    9/0 средняя 
[Ac trans]
+24.1 +5.6 30 +24  1010  0.3  757  280           
15 25.06.17 330 (СЗ) 10 км    8/8 600 м кучево-дожд. 
[Cb calv]
+24.7 +5.5 29 +25  1010.6  0.6  758  279    +25.9       
18 25.06.17 330 (СЗ) н/о    8/0 средняя 
[Ac trans]
+21 +6.1 38 +21  1012.2  1.6  759  283    +25.9       
21 25.06.17 330 (СЗ) н/о    ясно 
+16.3 +7.3 55 +18  1013.8  1.6  760  288           
00 26.06.17 тихо ()   н/о    6/0 средняя 
[Ac trans]
+12.8 +6.1 64 +13  1014.6  0.8  761  292           
03 26.06.17 290 (З) 10 км    3/0 средняя 
[Ac trans]
+17.2 +8.2 55 +18  1015.6  762  287           
06 26.06.17 280 (З) 10 км    6/6 1000 м 
[Cu med, cong]
+24.9 +5.8 29 +25  1016  0.4  762  280  +12.1         
09 26.06.17 290 (З) 10 км    8/0 
[Cu med, cong]
+27.2 +6.2 26 +27  1015.4  -0.6  761  278           
12 26.06.17 270 (З) 10 км    9/9 1000 м 
[Cu med, cong]
+28.1 +8.9 30 +28  1014.8  -0.6  761  277           
15 26.06.17 280 (З) 10 км    6/6 1000 м 
[Cu med, cong]
+28.7 +10.4 32 +30  1014.5  -0.3  761  276    +30       
18 26.06.17 240 (ЮЗ) н/о    3/0 средняя 
[Ac trans]
+23.8 +8.2 37 +24  1015.4  0.9  761  281    +30       
21 26.06.17 200 (Ю) н/о    ясно 
+20.4 +9.8 51 +21  1015.5  0.1  761  284           
00 27.06.17 210 (ЮЗ) н/о    8/0 средняя 
[Ac trans]
+21 +10.9 52 +23  1015.8  0.3  762  283           
03 27.06.17 240 (ЮЗ) 10 км    9/0 средняя 
[Ac trans]
+22.5 +9.3 43 +23  1016.7  0.9  762  282           
06 27.06.17 270 (З) 10 км    3/0 средняя 
[Ac trans]
+28.8 +8.1 27 +29  1016.4  -0.3  762  277  +19.8         
09 27.06.17 240 (ЮЗ) 10 км    8/8 1000 м 
[Cu med, cong]
+31.7 +5.9 20 +32  1015.9  -0.5  762  274           
12 27.06.17 220 (ЮЗ) 10 км    9/9 1000 м 
[Cu med, cong]
+32.2 +5.9 19 +32  1014.6  -1.3  761  273           
15 27.06.17 220 (ЮЗ) 10 км    8/8 1000 м 
[Cu med, cong]
+32.3 +5.8 19 +32  1013.6  -1  760  273    +34       
18 27.06.17 220 (ЮЗ) н/о    ясно 
+25.6 +7.3 31 +26  1014.6  761  279    +34       
21 27.06.17 220 (ЮЗ) н/о    ясно 
+20.6 +7.1 42 +21  1014.6  761  284           
00 28.06.17 240 (ЮЗ) н/о    3/0 средняя 
[Ac trans]
+16.9 +5.5 47 +18  1014.5  -0.1  761  288           
03 28.06.17 310 (СЗ) 10 км    3/0 верхняя 
[Ci fib]
+24.1 +10.2 41 +25  1014.2  -0.3  761  280  +16.3        сухая 
Время (UTC), дата Ветер
(°,м/с) 
Видим.   Явления Облачность Т
(°С)
Тd
(°С)
f(%) Тe
(°С)
Pmin
(гПа)
dP
(гПа)
Po
(мм)
O2
(г/м3)
Тmin Tmax R s Состояние
почвы

Для получения пояснительной информации подведите курсор к названию столбца.

ПОГОДА в Тайпаке - архив

Всё, что Вы хотите узнать о погоде в Тайпаке - удобно и подробно!

Выберите нужную дату (начиная с 1 января 2015* года) и нажмите кнопку "Найти".
Будут отображены архивные сводки погоды по пункту Тайпак, начиная с указанной даты.


Отображать данные в формате CSV (для использования в таблицах Excel)


Внимание! Наш архив погоды предназначен исключительно для личного некоммерческого использования в познавательных целях. Если Вам необходимы официальные справки о состоянии погоды (для производственных, юридических, коммерческих и т.п. целей), обращайтесь в органы Росгидромета.

*Примечание: данная дата относится к архиву по метеостанциям СССР (Россия, СНГ, Балтия).
Архив по метеостанциям Зарубежной Европы и Азии (кроме Китая) хранится 10 дней, по другим регионам земного шара (Китай, Африка, Америка, Австралия, Океания) - 1 день.

Тайпак - район местоположения метеостанции


Название, широта, долгота, высота метеостанции:
Тайпак (Калмыково) 49.1°ш. 51.9°д. 2 м над ур. моря [Казахстан]

Дополнительная информация

В oтличие oт бoльшинства пoгoдных сайтoв мы публикуем пoдрoбную метеoинфoрмацию в детальнoм прoфессиoнальнoм фoрмате.

Характеристики температуры и влажнoсти вoздуха измеряются на высoте 2 м в тени вдали oт зданий и деревьев.
Скoрoсть ветра измеряется на высoте 10 м (на урoвне рoста челoвека скoрoсть ветра ниже в 1.5-2 раза). Если метеoстанция нахoдится в гoрoде или в лесу, тo скoрoсть ветра занижена на 2-4 м/с пo сравнению с oткрытым местoм. Скoрoсть ветра над акватoриями крупных рек и oзёр, а также на вершинах хoлмoв на 2-5 м/с выше, чем в oбычных услoвиях.
Атмoсфернoе давление в разных тoчках местнoсти мoжет значительнo oтличаться oт давления на метеoстанции, в зависимoсти oт услoвий рельефа (при пoдъёме на 10 м давление пoнижается примернo на 1 мм рт.ст.).